Location: Newark
(33.6439°N, 114.9881°W)
Time: 02:50:14
(UTC+00:00)

A-11 Canister half - Pass Details

Date: 01 September 2019
Orbit: 1527 x 1682 km, 47.3° (Epoch: 15 September)

Event Time Altitude Azimuth Distance (km) Brightness Sun altitude
Rises 01:42:29 0° 294° (WNW) 4,935 13.5 4.2°
Reaches altitude 10° 01:46:42 10° 280° (W) 3,942 14.0 3.3°
Maximum altitude 01:53:34 21° 236° (SW) 3,134 11.4 1.9°
Drops below altitude 10° 02:00:23 10° 192° (SSW) 3,890 11.2 0.5°
Sets 02:04:34 0° 177° (S) 4,851 11.5 -0.4°
